Weather History for KTIP - December, 2012

Change the Weather History Date:

Sunday, December 9, 2012

  Actual Average (KCMI) Record (KCMI)
Temperature  
Mean Temperature 44 °F 31 °F  
Max Temperature 50 °F 38 °F 53 °F (1999)
Min Temperature 38 °F 23 °F 0 °F (2010)
Degree Days  
Heating Degree Days 21 34  
Month to date heating degree days 294  
Since 1 July heating degree days 1458  
Cooling Degree Days 0 0  
Month to date cooling degree days 0  
Year to date cooling degree days 945  
Moisture  
Dew Point 42 °F    
Average Humidity 95    
Maximum Humidity 100    
Minimum Humidity 83    
Precipitation  
Precipitation 0.12 in 0.07 in 0.56 in (2007)
Month to date precipitation 0.76  
Year to date precipitation 37.96  
Sea Level Pressure  
Sea Level Pressure 29.84 in    
Wind  
Wind Speed 12 mph (East)    
Max Wind Speed 18 mph    
Max Gust Speed 24 mph    
Visibility 4 miles    
Events Fog , Rain    
T = Trace of Precipitation, MM = Missing Value Source: NWS Daily Summary

Daily Weather History Graph

Daily Weather History Graph

Search for Another Location

Airport or City:

Trip Planner

Search our weather history database for the weather conditions in past years. The results will help you decide how hot, cold, wet, or windy it might be!

Date:

Astronomy

Dec. 09, 2012 Rise Set
Actual Time 7:03 AM CST 4:26 PM CST
Civil Twilight 6:33 AM CST 4:56 PM CST
Nautical Twilight 5:59 AM CST 5:31 PM CST
Astronomical Twilight 5:26 AM CST 6:04 PM CST
Moon 2:36 AM CST (12/9) 1:33 PM CST (12/9)
Length of Visible Light 10h 23m
Length of Day
9h 22m
Waning Crescent, 18% of the Moon is Illuminated
Dec 9
Waning Crescent
Dec 13
New
Dec 19
First Quarter
Dec 28
Full
Jan 4
Last Quarter

Hourly Weather History & Observations

Time (CST) Temp. Windchill Dew Point Humidity Pressure Visibility Wind Dir Wind Speed Gust Speed Precip Events Conditions
12:15 AM 38.8 °F 30.8 °F 36.5 °F 91% 30.02 in 7.0 mi ENE 13.8 mph - N/A   Mostly Cloudy
12:35 AM 38.8 °F 31.2 °F 36.7 °F 92% 30.03 in 7.0 mi East 12.7 mph 18.4 mph N/A   Scattered Clouds
12:55 AM 39.2 °F 32.0 °F 37.4 °F 93% 30.03 in 7.0 mi ENE 11.5 mph - N/A   Clear
1:15 AM 38.8 °F 32.6 °F 37.0 °F 93% 30.03 in 7.0 mi East 9.2 mph - N/A   Scattered Clouds
1:35 AM 39.2 °F 32.5 °F 37.4 °F 93% 30.02 in 7.0 mi East 10.4 mph - N/A Rain Light Rain
1:55 AM 39.2 °F 33.6 °F 37.6 °F 94% 30.03 in 5.0 mi ENE 8.1 mph - 0.01 in Rain Light Rain
2:15 AM 39.2 °F 32.5 °F 37.9 °F 95% 30.01 in 4.0 mi ENE 10.4 mph - 0.01 in Rain Light Rain
2:35 AM 39.2 °F 32.0 °F 38.3 °F 97% 30.00 in 4.0 mi ENE 11.5 mph - 0.02 in Rain Rain
2:55 AM 39.4 °F 31.4 °F 38.5 °F 97% 29.97 in 4.0 mi ENE 13.8 mph 19.6 mph 0.02 in Rain Light Rain
3:15 AM 39.6 °F 31.7 °F 38.7 °F 97% 29.96 in 4.0 mi ENE 13.8 mph - N/A Rain Light Rain
3:35 AM 39.9 °F 32.1 °F 39.0 °F 97% 29.96 in 4.0 mi ENE 13.8 mph - N/A Rain Light Rain
3:55 AM 40.1 °F 31.6 °F 38.8 °F 95% 29.96 in 4.0 mi ENE 16.1 mph - N/A Rain Light Rain
4:15 AM 40.1 °F 32.0 °F 39.0 °F 96% 29.95 in 4.0 mi ENE 15.0 mph - 0.01 in Rain Light Rain
4:35 AM 40.1 °F 31.3 °F 39.2 °F 97% 29.94 in 4.0 mi East 17.3 mph 20.7 mph 0.02 in Rain Light Rain
4:55 AM 40.3 °F 32.6 °F 39.4 °F 97% 29.94 in 3.0 mi East 13.8 mph - 0.03 in Rain Rain
5:15 AM 40.3 °F 32.2 °F 39.4 °F 97% 29.93 in 4.0 mi East 15.0 mph 20.7 mph N/A   Drizzle
5:35 AM 40.5 °F 32.8 °F 39.6 °F 97% 29.93 in 3.0 mi East 13.8 mph - 0.01 in Rain Rain
5:55 AM 40.6 °F 32.7 °F 39.7 °F 97% 29.91 in 3.0 mi East 15.0 mph 19.6 mph 0.01 in   Light Drizzle
6:15 AM 40.8 °F 32.6 °F 39.7 °F 96% 29.90 in 4.0 mi East 16.1 mph 20.7 mph N/A   Overcast
6:35 AM 41.0 °F 33.1 °F 39.7 °F 95% 29.90 in 4.0 mi East 15.0 mph 20.7 mph N/A   Overcast
6:55 AM 41.0 °F 33.5 °F 39.7 °F 95% 29.90 in 4.0 mi East 13.8 mph 17.3 mph N/A   Overcast
7:15 AM 41.0 °F 32.8 °F 40.1 °F 97% 29.89 in 4.0 mi East 16.1 mph 20.7 mph N/A   Overcast
7:35 AM 41.2 °F 33.7 °F 40.1 °F 96% 29.88 in 3.0 mi East 13.8 mph - N/A   Overcast
7:55 AM 41.4 °F 33.6 °F 40.3 °F 96% 29.87 in 2.5 mi East 15.0 mph - N/A Rain Light Rain
8:15 AM 41.5 °F 35.4 °F 40.5 °F 96% 29.87 in 2.5 mi East 10.4 mph - 0.01 in Rain Light Rain
8:35 AM 41.7 °F 34.8 °F 40.8 °F 97% 29.86 in 2.5 mi East 12.7 mph - 0.02 in   Drizzle
8:55 AM 41.9 °F 35.9 °F 41.0 °F 97% 29.87 in 2.5 mi East 10.4 mph - 0.02 in Rain Rain
9:15 AM 42.4 °F 36.1 °F 41.5 °F 97% 29.85 in 2.0 mi East 11.5 mph - 0.01 in Rain Light Rain
9:35 AM 42.8 °F 37.5 °F 42.1 °F 97% 29.86 in 2.0 mi East 9.2 mph - 0.01 in Rain Light Rain
9:55 AM 43.5 °F 38.3 °F 42.8 °F 97% 29.84 in 2.0 mi ESE 9.2 mph - 0.01 in Rain Rain
10:15 AM 44.1 °F 39.0 °F 43.5 °F 98% 29.84 in 1.8 mi ESE 9.2 mph - N/A   Overcast
10:35 AM 44.6 °F 39.2 °F 43.7 °F 97% 29.83 in 1.2 mi ESE 10.4 mph - N/A   Overcast
10:55 AM 45.0 °F 40.6 °F 44.2 °F 97% 29.83 in 0.8 mi SE 8.1 mph - N/A   Overcast
11:15 AM 45.5 °F 40.8 °F 45.0 °F 98% 29.82 in 0.8 mi SE 9.2 mph - N/A   Overcast
11:35 AM 46.0 °F 41.9 °F 45.5 °F 98% 29.81 in 1.0 mi SE 8.1 mph - N/A   Overcast
11:55 AM 46.6 °F - 46.0 °F 98% 29.79 in 0.8 mi SE 5.8 mph - N/A   Overcast
12:15 PM 47.7 °F - 47.3 °F 99% 29.76 in 0.5 mi ESE 8.1 mph - N/A Fog Fog
12:35 PM 49.1 °F - 48.6 °F 98% 29.75 in 0.5 mi SSE 9.2 mph - N/A Fog Fog
12:55 PM 50.0 °F - 50.0 °F 100% 29.74 in 0.5 mi SSE 11.5 mph - N/A Fog Fog
1:15 PM 49.8 °F - 49.5 °F 99% 29.76 in 0.5 mi SSW 9.2 mph - N/A Rain Light Rain
1:35 PM 50.0 °F - 49.5 °F 98% 29.77 in 0.5 mi SW 11.5 mph - N/A Fog Fog
1:55 PM 50.0 °F - 49.5 °F 98% 29.76 in 0.5 mi SW 12.7 mph 18.4 mph 0.01 in Fog Fog
2:15 PM 50.0 °F - 49.5 °F 98% 29.75 in 2.0 mi WSW 8.1 mph - N/A   Overcast
2:35 PM 50.0 °F - 49.6 °F 99% 29.76 in 3.0 mi WSW 11.5 mph - N/A   Overcast
2:55 PM 49.8 °F - 49.1 °F 97% 29.76 in 2.5 mi WSW 12.7 mph 18.4 mph N/A   Overcast
3:15 PM 49.5 °F - 48.7 °F 97% 29.76 in 2.5 mi WSW 12.7 mph - N/A   Overcast
3:35 PM 49.3 °F - 48.4 °F 97% 29.76 in 3.0 mi WSW 11.5 mph - N/A   Overcast
3:55 PM 48.7 °F - 48.2 °F 98% 29.76 in 3.0 mi West 11.5 mph - N/A   Drizzle
4:15 PM 48.2 °F - 47.3 °F 97% 29.75 in 4.0 mi West 8.1 mph - N/A Rain Rain
4:35 PM 47.8 °F - 46.9 °F 97% 29.76 in 4.0 mi West 8.1 mph - N/A Rain Rain
4:55 PM 47.5 °F - 46.6 °F 97% 29.75 in 5.0 mi West 9.2 mph - 0.01 in Rain Light Rain
5:15 PM 47.3 °F - 46.4 °F 97% 29.75 in 5.0 mi West 11.5 mph - N/A   Overcast
5:35 PM 46.4 °F 40.1 °F 45.5 °F 97% 29.76 in 5.0 mi WNW 15.0 mph - N/A   Overcast
5:55 PM 45.9 °F 40.8 °F 45.0 °F 97% 29.75 in 5.0 mi West 10.4 mph - N/A   Overcast
6:15 PM 45.7 °F 40.2 °F 44.6 °F 96% 29.77 in 7.0 mi West 11.5 mph - N/A   Mostly Cloudy
6:35 PM 45.5 °F 39.9 °F 44.1 °F 95% 29.77 in 7.0 mi West 11.5 mph - N/A   Mostly Cloudy
6:55 PM 45.5 °F 39.6 °F 43.9 °F 94% 29.77 in 7.0 mi West 12.7 mph - N/A Rain Light Rain
7:15 PM 44.8 °F 39.0 °F 43.7 °F 96% 29.76 in 5.0 mi WNW 11.5 mph - N/A   Overcast
7:35 PM 44.6 °F 38.4 °F 43.5 °F 96% 29.77 in 4.0 mi WNW 12.7 mph - N/A   Overcast
7:55 PM 44.1 °F 37.4 °F 42.6 °F 95% 29.77 in 7.0 mi WNW 13.8 mph - N/A   Mostly Cloudy
8:15 PM 43.7 °F 36.0 °F 41.9 °F 93% 29.77 in 10.0 mi WNW 17.3 mph 23.0 mph N/A   Mostly Cloudy
8:35 PM 43.2 °F 35.0 °F 41.2 °F 93% 29.77 in 7.0 mi WNW 18.4 mph 24.2 mph N/A   Mostly Cloudy
8:55 PM 42.3 °F 34.4 °F 40.1 °F 92% 29.77 in 10.0 mi WNW 16.1 mph - N/A   Overcast
9:15 PM 42.1 °F 35.2 °F 39.7 °F 91% 29.78 in 10.0 mi WNW 12.7 mph 17.3 mph N/A   Overcast
9:35 PM 42.1 °F 34.5 °F 38.5 °F 87% 29.79 in 10.0 mi West 15.0 mph - N/A   Scattered Clouds
9:55 PM 41.9 °F 35.0 °F 38.5 °F 88% 29.79 in 10.0 mi West 12.7 mph - N/A   Scattered Clouds
10:15 PM 41.5 °F 34.6 °F 36.9 °F 83% 29.79 in 10.0 mi WNW 12.7 mph - N/A   Scattered Clouds
10:35 PM 41.2 °F 35.5 °F 37.6 °F 87% 29.79 in 10.0 mi WNW 9.2 mph - N/A   Scattered Clouds
10:55 PM 41.2 °F 34.1 °F 37.2 °F 86% 29.79 in 10.0 mi WNW 12.7 mph - N/A   Scattered Clouds
11:15 PM 41.0 °F 35.2 °F 37.6 °F 88% 29.79 in 10.0 mi West 9.2 mph - N/A   Scattered Clouds
11:35 PM 41.0 °F 35.2 °F 37.2 °F 86% 29.79 in 10.0 mi WNW 9.2 mph - N/A   Scattered Clouds
11:55 PM 41.0 °F 34.7 °F 37.0 °F 86% 29.79 in 10.0 mi West 10.4 mph - N/A   Clear